User: anonymous   Login
Location: Bowman Observatory
(41.0326°N, 73.6210°W)
Time: 07:55:54
(UTC-04:00)
Language:

Cosmos 2297 - Orbit

View from above orbital plane
View from above orbital plane
View from above satellite
View from above satellite

Ground track
Ground track

The orbit data is extracted from the following two-line orbital elements,

1 23404U 94077A   16272.08568171 -.00000215  00000-0 -88771-4 0  9999
2 23404  71.0124 121.6460 0016096 197.0774 162.9808 14.13479070127030
Epoch (UTC): 28 September 2016 02:03:22
Eccentricity: 0.0016096
inclination: 71.0124°
perigee height: 836 km
apogee height: 859 km
right ascension of ascending node: 121.6460°
argument of perigee: 197.0774°
revolutions per day: 14.13479070
mean anomaly at epoch: 162.9808°
orbit number at epoch: 12703

The dashed part of the orbit path shows where the satellite is in the earth's shadow,  

DLR